Location: Firdgum
(53.2488°N, 5.5615°E)
Time: 11:31:41
(UTC+00:00)

Cosmos 1092 Rocket - Pass Details

Date: 08 December 2019
Orbit: 953 x 996 km, 83.0° (Epoch: 25 January)

Event Time Altitude Azimuth Distance (km) Brightness Sun altitude
Rises 04:14:09 0° 350° (N) 3,677 6.9 -29.1°
Reaches altitude 10° 04:16:44 10° 354° (N) 2,720 6.3 -28.8°
Maximum altitude 04:22:53 61° 75° (ENE) 1,091 4.4 -27.8°
Drops below altitude 10° 04:28:57 10° 155° (SSE) 2,682 6.6 -26.9°
Sets 04:31:28 0° 159° (SSE) 3,621 7.3 -26.6°
